Torna al catalogo

BEIDOU 3 G3

AttivoNavigazioneGEO
NORAD 45807·PAYLOAD·🇨🇳 China

Lanciato Jun 23, 2020 da Xichang Satellite Launch Center

Loading…

TLE

AggiornatoSource: Space-Track

Epoca: Sep 14, 2026, 14:19 UTC

1 45807U 20040A   26257.59702777 -.00000360  00000-0  00000-0 0  9996
2 45807   2.6624  67.4137 0002655 284.4076 327.2119  1.00268732 22966

Traccia BEIDOU 3 G3 in tempo reale con AllMySat

Download on the App Store